Theta_e
309 301 297 297 301 302 304 306 307 306 306 305 304 302 301 301 302 298 297 295 295 295 298 299 298 297 298 299 300 301 302 300 300 301 301 302 303 304 306 309 313 316 317 323 324 325 326 327 328 328 329 328 329 329 330 330 330 330 330 330 329 330 331 330 331 331 331 329 330 330 330 329 330 329 330 330 331 332 334 335 334 333 332 332 332 332
305 300 298 301 305 305 305 307 306 303 304 304 302 300 300 300 300 301 300 295 296 295 298 295 294 296 297 299 300 301 300 298 299 300 301 302 303 304 306 307 310 312 317 319 319 321 323 324 327 327 327 325 326 327 328 329 329 330 330 329 329 330 331 330 331 331 331 332 331 330 330 331 331 330 328 328 329 330 332 333 334 334 332 332 332 330
297 297 302 305 308 307 306 306 305 304 302 303 301 301 300 300 300 298 297 295 295 295 297 299 295 298 300 300 301 300 299 300 301 301 302 303 303 303 304 305 307 309 310 313 316 319 320 323 324 325 326 327 327 327 327 329 329 329 330 330 330 331 330 331 331 332 331 333 333 333 333 332 331 333 332 331 331 331 331 332 332 333 332 332 332 331
293 299 305 307 308 306 303 303 303 302 301 299 298 298 297 299 297 298 296 295 295 295 295 294 292 295 299 301 300 301 300 301 301 301 302 303 303 303 304 305 305 305 307 309 311 314 318 320 322 324 324 325 326 325 326 327 328 328 329 330 331 331 332 332 331 329 333 334 334 334 334 334 333 331 332 332 332 332 332 331 333 333 333 333 332 332
297 302 307 305 305 304 300 300 300 299 297 297 299 300 300 295 298 298 296 295 295 293 292 294 294 296 299 299 301 302 302 301 301 300 300 302 304 304 307 307 305 303 305 307 309 311 313 316 319 321 323 325 325 325 326 326 327 328 329 330 331 331 331 332 331 331 333 333 333 334 334 334 334 334 331 329 329 331 331 331 332 332 333 332 331 332
297 303 305 302 302 302 300 297 299 299 296 295 297 300 300 299 299 294 295 297 298 297 294 293 292 295 298 298 298 300 299 298 299 299 299 300 301 302 300 301 304 305 305 305 307 309 311 312 315 319 322 323 324 325 326 328 328 329 329 330 331 332 332 332 333 333 332 331 331 330 328 326 326 326 326 325 326 328 329 329 331 332 332 333 332 333
300 299 304 301 301 301 300 299 300 301 297 295 297 300 301 300 298 295 295 297 294 291 294 294 290 289 296 296 299 301 300 299 301 300 300 299 299 300 300 301 302 303 303 304 304 306 307 310 311 314 318 321 322 324 327 328 328 329 329 330 331 331 332 333 332 333 331 331 330 330 329 329 327 327 327 328 330 330 330 331 330 330 331 332 331 331
296 297 301 301 300 300 299 297 299 301 299 296 299 299 299 298 297 296 296 296 296 293 296 293 294 287 287 294 299 299 298 300 301 301 301 301 300 299 300 301 301 303 304 305 305 305 305 307 309 310 313 317 320 323 325 327 328 328 329 329 330 331 330 332 332 332 331 330 330 329 329 328 328 328 328 329 329 331 330 329 329 329 329 330 332 331
297 294 299 297 299 298 298 301 300 302 300 298 296 300 298 299 299 296 296 294 292 291 290 292 294 289 290 294 295 296 296 298 299 301 302 302 303 302 302 302 302 302 303 304 305 305 305 306 307 308 311 314 318 321 323 325 327 328 329 329 330 330 330 330 331 330 330 329 330 329 329 328 328 329 329 330 329 329 329 328 328 328 329 329 331 331
296 298 300 300 299 297 300 300 300 302 297 295 297 300 298 297 296 295 292 292 290 288 286 292 293 288 290 297 299 294 294 296 299 301 303 304 305 305 304 303 303 303 303 303 303 304 305 306 307 308 308 309 313 317 321 323 325 326 327 327 327 328 329 329 330 329 330 330 328 328 328 327 328 328 329 330 329 329 329 326 327 327 328 328 328 329
294 296 301 301 299 300 298 299 301 303 300 299 298 296 295 295 292 291 291 290 289 284 287 293 292 292 287 296 298 298 297 298 301 302 303 303 304 304 304 305 306 303 302 302 303 303 303 304 305 306 305 306 308 313 315 317 320 323 325 326 326 327 328 328 328 328 328 329 328 328 328 327 327 328 328 327 327 328 327 325 326 327 328 328 327 328
295 297 298 297 295 298 301 296 297 298 297 297 294 292 292 291 293 290 289 290 285 285 288 291 292 292 285 292 298 300 298 296 296 299 301 301 302 303 304 303 301 300 300 300 300 301 302 302 303 304 303 304 306 308 310 315 318 320 323 324 324 326 326 328 328 328 327 327 327 328 328 328 327 327 327 326 325 326 326 325 326 327 327 326 326 326
292 294 294 295 297 299 298 296 295 295 296 295 293 293 289 284 286 283 285 282 283 285 285 286 288 287 288 295 297 299 300 300 299 298 298 299 300 302 302 302 301 301 301 301 302 303 302 302 303 303 303 303 304 304 306 310 314 318 320 322 323 324 326 327 327 327 327 327 327 327 327 328 328 328 328 327 326 327 326 325 326 325 324 324 324 324
288 293 292 295 296 298 300 294 289 288 291 293 291 290 288 283 282 281 284 286 286 287 286 287 289 286 293 296 300 299 301 301 301 301 301 300 300 300 301 302 300 301 301 302 302 302 302 302 302 302 302 302 303 304 305 306 310 314 317 319 321 322 325 326 327 327 326 326 327 328 327 328 328 328 328 328 327 327 327 326 326 326 325 324 324 323
284 285 291 292 292 298 299 299 295 293 292 292 297 295 291 289 285 281 284 281 284 287 285 287 287 287 289 295 294 296 298 299 299 298 298 298 298 298 298 298 299 301 302 302 302 302 301 301 301 302 303 303 303 303 303 304 306 310 313 316 318 320 322 325 325 326 325 325 326 327 327 327 328 328 328 328 328 328 327 326 326 327 326 326 325 325
290 288 290 296 295 298 297 297 299 295 293 295 296 296 291 290 294 288 287 287 285 285 284 283 287 293 295 298 298 300 300 299 299 298 295 296 297 297 297 299 302 302 302 303 302 303 303 303 303 303 303 303 303 303 302 303 305 307 310 313 316 318 320 323 324 325 325 325 326 327 327 327 327 327 328 327 328 328 328 326 326 326 326 327 327 325
289 286 290 293 294 297 298 298 297 298 285 292 293 288 292 295 293 286 284 283 284 285 284 289 287 292 297 298 301 301 298 299 300 297 296 298 298 297 300 302 301 302 303 303 303 303 303 303 303 303 303 303 303 302 303 303 304 306 308 311 313 316 319 321 323 323 324 324 324 325 326 327 327 327 327 327 328 328 329 327 326 326 326 326 326 324
290 285 289 291 290 294 293 298 299 297 296 295 288 293 296 298 296 291 286 283 283 282 284 285 285 289 290 288 296 295 296 299 299 300 298 297 298 298 303 303 302 302 302 301 301 301 301 301 302 302 303 302 302 303 303 303 304 306 308 309 311 313 316 319 321 322 322 323 323 324 325 326 326 327 327 327 327 328 327 326 325 325 323 323 323 321
293 283 287 288 291 292 296 297 295 298 295 295 294 300 293 287 286 290 287 280 279 279 282 285 285 285 289 292 295 295 297 297 299 300 298 297 299 300 301 302 303 303 302 303 302 302 302 303 304 304 304 304 302 302 303 304 304 305 306 308 311 312 315 317 320 321 321 322 323 324 324 325 325 326 327 327 328 327 326 324 323 323 323 322 321 319
296 284 284 289 291 292 294 295 287 291 295 296 296 296 297 293 291 287 288 287 287 283 281 283 283 286 291 292 295 296 297 297 297 298 297 298 299 299 301 302 303 304 303 303 302 302 302 302 302 303 303 304 304 304 303 303 303 303 304 306 308 311 314 316 318 319 319 321 321 323 324 324 325 325 325 326 326 325 323 323 322 321 321 320 317 317
290 293 282 286 290 292 287 291 290 292 288 290 292 291 292 291 293 293 291 288 286 284 282 283 282 288 294 295 296 297 297 298 298 298 301 300 300 301 300 301 303 303 304 304 303 302 302 301 302 303 303 302 301 300 299 300 302 304 304 304 305 307 309 312 314 317 318 319 320 320 321 322 322 323 323 323 323 323 321 321 321 321 320 318 314 314
288 289 284 285 285 286 290 294 295 295 294 293 292 290 292 289 285 284 283 289 285 285 282 281 281 289 294 293 295 297 298 299 297 296 297 297 298 300 303 303 301 303 303 302 302 301 301 302 302 303 302 301 299 300 301 302 302 303 303 303 303 304 306 309 312 314 315 317 319 319 320 320 321 321 321 320 320 320 321 321 319 318 317 314 313 312
294 292 287 283 285 288 289 290 289 291 295 295 293 293 296 293 291 288 283 283 284 284 284 284 281 286 298 295 296 298 297 294 294 295 296 297 298 299 302 302 301 300 300 300 300 301 301 302 302 301 299 297 298 300 301 301 302 304 305 304 304 304 304 307 310 313 314 315 316 317 319 319 318 318 317 317 316 316 317 317 316 316 313 312 310 309
293 288 285 284 288 289 290 289 291 290 292 291 291 291 293 291 291 290 289 287 286 285 284 285 282 288 295 296 294 294 293 293 294 294 297 299 300 301 300 304 304 301 301 300 300 300 302 301 299 298 300 301 302 302 302 302 302 303 303 303 303 304 305 306 308 310 311 313 314 316 315 315 315 314 314 314 314 314 315 315 314 312 312 310 308 307
289 289 287 282 281 284 287 289 290 291 290 289 290 291 293 294 293 290 288 288 287 286 287 285 280 288 290 295 293 291 293 292 294 295 295 298 301 300 300 301 301 300 300 300 302 303 303 302 302 304 304 303 303 302 302 302 303 302 303 303 302 302 303 304 306 307 309 310 310 311 312 312 312 312 312 312 312 313 313 311 311 309 310 308 306 306
292 289 287 281 277 276 276 278 280 283 284 289 290 291 291 292 291 287 285 286 284 287 287 286 286 291 294 295 295 293 293 294 295 294 293 296 297 299 300 301 300 300 301 300 301 303 304 302 302 301 301 302 302 301 301 301 301 302 302 303 303 302 302 302 303 305 306 307 308 308 309 309 309 310 310 310 310 310 309 307 306 306 306 305 304 301
289 291 290 288 285 284 285 287 290 290 287 284 287 289 290 292 294 292 290 287 284 287 285 288 290 289 291 293 294 296 295 295 297 297 297 298 298 298 298 298 299 300 300 299 300 301 300 301 303 305 304 302 301 301 300 299 301 301 301 302 302 302 302 302 302 303 305 306 307 306 307 307 307 308 308 307 307 304 303 303 302 302 302 300 300 298
288 287 290 292 291 289 291 289 292 291 287 289 288 288 291 291 292 289 287 286 291 286 283 290 293 288 291 294 296 296 297 297 298 299 298 297 299 302 304 301 297 297 299 299 300 300 301 302 304 305 304 302 301 299 299 299 298 300 301 301 301 300 300 301 302 303 303 304 304 305 305 304 304 303 303 303 301 300 299 299 298 299 298 297 297 297
289 287 290 291 286 287 290 291 292 292 291 290 290 290 289 290 290 287 288 292 291 287 287 292 293 290 293 294 296 296 298 297 299 301 299 298 297 298 298 297 298 299 300 300 301 302 302 303 304 304 303 302 300 298 299 299 299 298 298 299 301 300 300 301 301 301 302 302 303 304 304 303 300 301 299 297 297 297 297 296 296 296 296 296 296 297
291 289 289 290 285 286 287 291 292 291 291 290 290 291 291 290 290 290 291 292 292 290 293 292 293 293 295 296 297 299 300 300 300 299 297 299 300 302 300 300 301 302 301 301 302 303 303 303 303 302 302 301 301 300 299 299 299 299 299 299 299 299 300 300 300 300 301 301 302 301 299 298 296 297 296 296 296 296 295 295 295 294 294 295 295 295
291 286 289 287 285 283 285 288 290 291 290 288 290 291 291 291 291 291 291 292 293 291 292 292 291 290 295 297 298 300 300 297 297 297 298 299 301 300 300 301 301 301 302 302 303 303 303 302 302 302 301 301 301 301 301 301 301 300 299 299 299 299 298 298 299 300 300 300 297 295 294 294 294 293 294 295 295 294 294 294 293 293 293 293 293 292
293 285 287 287 284 281 284 286 287 288 288 287 287 289 290 289 288 290 288 292 290 288 290 290 288 289 295 297 298 297 296 296 297 298 299 300 301 301 301 301 301 301 302 302 302 302 302 301 301 301 301 301 301 301 301 301 300 299 299 299 299 299 297 297 298 299 299 298 294 293 294 293 293 292 292 293 293 292 292 292 291 292 291 291 291 291
289 287 286 287 285 282 284 286 285 286 285 283 284 288 290 291 291 292 293 293 293 294 290 286 288 294 295 297 296 296 297 297 298 299 300 300 301 301 301 301 301 301 301 302 301 301 301 300 300 300 300 300 301 301 302 301 300 299 299 299 299 297 294 296 297 298 298 295 294 293 293 292 292 293 292 292 291 291 291 291 291 291 290 291 291 290
288 288 287 289 284 283 282 284 286 284 278 280 292 295 293 290 290 289 289 291 293 294 292 294 295 297 297 296 295 296 296 297 299 301 302 302 302 302 301 300 300 300 300 300 300 299 299 299 300 300 300 300 300 300 301 300 300 300 300 300 298 296 296 296 296 297 296 294 294 293 292 292 292 292 292 291 290 290 290 291 291 290 291 290 289 289
287 288 288 288 286 279 281 284 282 277 279 292 293 297 296 294 293 291 292 293 294 294 294 294 295 296 297 297 297 298 299 299 300 300 300 298 298 298 298 299 299 299 300 300 299 299 300 300 300 299 299 300 300 300 300 298 297 298 297 297 296 296 295 295 296 295 295 294 293 293 292 292 292 292 291 290 290 290 290 290 290 290 289 289 289 289
287 287 284 279 282 280 279 282 276 278 288 294 292 290 296 295 294 292 291 294 294 294 295 293 295 296 298 297 298 300 301 299 296 295 295 297 297 298 298 298 299 298 298 299 300 301 301 300 299 298 298 298 298 299 299 299 297 296 296 296 296 295 295 295 295 295 295 294 293 293 292 292 292 292 291 290 290 290 290 290 289 289 289 289 289 289
292 288 287 280 280 280 281 282 283 289 288 291 291 287 291 290 290 290 285 290 294 295 295 294 295 296 297 296 297 297 295 294 294 297 299 298 299 298 299 299 300 300 300 301 300 300 300 297 296 296 296 296 297 297 298 297 295 296 295 294 294 294 294 294 294 295 294 294 294 293 292 292 292 292 291 290 290 289 289 289 288 288 289 289 289 289
294 288 289 285 279 284 282 280 281 281 279 286 292 293 296 297 296 296 293 290 297 296 297 296 295 296 297 297 296 296 296 292 291 294 299 301 301 301 299 301 300 300 300 299 299 297 296 295 294 294 294 294 295 296 296 295 295 295 294 293 293 293 293 293 294 295 295 294 294 293 293 293 293 290 290 289 289 289 289 289 289 288 288 289 289 289
291 291 290 289 282 280 281 280 279 278 282 291 289 292 296 296 297 296 290 286 294 297 296 296 295 296 297 296 296 295 292 289 290 295 300 300 298 297 298 298 298 297 296 296 295 295 294 294 292 291 292 293 294 295 293 293 293 294 293 293 292 292 292 292 294 294 294 294 295 294 293 292 291 290 289 289 289 289 289 288 288 289 288 289 289 289
287 288 288 286 279 283 283 281 280 284 284 287 291 291 293 296 298 293 281 284 296 297 297 296 295 296 296 297 296 293 292 289 292 297 300 299 298 296 296 297 295 294 293 291 291 291 291 290 291 293 294 294 295 293 292 293 293 291 294 293 292 291 291 292 293 295 296 296 294 293 290 290 289 289 289 288 288 288 288 288 288 287 288 288 289 288
285 284 286 284 285 283 284 283 285 286 288 288 289 291 292 297 295 285 280 291 293 295 297 297 296 297 296 294 294 292 295 298 300 298 291 292 293 293 291 291 292 292 293 292 292 288 290 291 291 292 292 293 292 292 291 292 292 291 293 293 291 290 291 293 294 294 294 294 293 290 289 289 289 288 288 288 288 288 288 288 288 287 287 287 287 287
285 286 285 287 284 282 283 282 284 287 291 291 288 291 294 292 283 284 293 295 294 292 294 296 295 294 295 295 295 297 297 299 296 292 292 291 294 294 294 293 292 292 291 289 287 288 290 290 290 290 291 289 289 289 290 290 290 291 292 291 290 292 293 293 294 293 293 291 289 288 288 288 288 288 288 288 288 287 287 287 287 287 287 288 286 285
285 284 283 283 286 283 283 283 278 279 289 292 290 289 292 289 291 295 292 289 294 293 292 293 295 294 295 294 296 297 297 295 295 295 295 293 292 292 292 292 292 292 292 291 290 287 286 290 290 289 287 286 286 288 289 289 288 289 289 289 291 292 292 292 293 292 292 289 288 287 287 287 287 287 287 287 287 287 287 286 286 285 286 285 284 284
291 285 285 286 288 282 283 280 282 289 289 293 292 288 291 295 298 296 297 294 291 293 293 293 293 294 295 296 295 295 295 293 292 292 292 292 291 291 291 290 290 289 289 288 287 286 283 288 287 287 285 285 286 287 288 287 287 287 288 289 290 289 289 290 290 289 288 288 287 287 287 287 286 287 287 287 286 286 286 286 285 285 285 285 285 284
290 289 290 286 289 288 286 290 289 289 292 295 296 299 297 298 295 293 297 298 294 291 291 293 293 293 295 295 295 295 292 291 294 293 293 292 291 291 292 292 289 289 288 288 288 282 283 286 286 285 286 286 284 285 286 287 286 286 286 288 287 287 287 287 286 286 286 285 285 286 286 286 287 286 286 286 286 286 286 285 285 284 285 285 285 284
291 292 287 292 289 291 290 289 289 289 291 293 292 293 297 297 293 292 294 295 296 294 293 296 294 293 292 294 293 291 293 293 292 290 291 290 291 291 289 290 289 286 286 285 286 283 281 283 283 282 284 285 284 284 283 284 285 286 287 286 285 285 285 285 285 285 284 284 284 284 283 284 284 284 284 285 286 286 286 285 285 285 285 285 285 284
288 289 290 290 288 288 286 292 289 290 291 292 294 293 295 296 294 292 292 296 296 292 291 292 293 293 292 291 294 294 292 290 291 290 290 291 290 290 290 289 289 286 286 286 282 281 284 283 285 282 281 283 282 282 281 281 281 281 283 283 284 283 283 284 284 283 283 282 283 282 283 284 285 284 283 284 285 286 286 285 285 285 284 284 284 284
286 288 290 286 288 288 289 290 291 292 292 293 294 294 293 294 292 289 291 289 291 291 291 290 291 290 291 291 292 293 291 290 292 291 291 291 290 289 289 288 288 286 281 279 279 279 281 281 282 280 281 282 280 279 279 278 278 278 279 281 281 281 282 283 283 283 282 281 282 283 283 284 280 282 284 284 284 285 285 285 285 285 284 284 285 284
288 289 288 287 287 289 287 287 288 287 290 290 291 292 295 297 295 289 288 288 290 289 288 288 291 291 292 292 291 292 290 290 292 292 291 290 289 288 287 286 285 283 282 281 279 279 282 281 280 280 280 279 278 277 277 276 277 277 277 278 279 280 282 282 280 280 279 280 281 281 281 283 282 283 284 283 283 284 285 285 285 285 285 285 286 286
289 287 290 288 286 286 288 289 289 288 287 290 290 293 293 294 292 289 289 289 290 290 290 289 288 288 289 290 291 293 292 291 290 291 290 288 287 285 285 283 282 281 279 278 278 277 276 276 278 279 278 277 276 276 276 276 276 276 276 277 278 279 280 279 280 280 279 280 281 280 281 282 282 281 282 282 283 282 281 278 281 283 285 285 283 282
290 290 291 288 287 288 292 291 293 295 294 294 294 294 294 292 291 290 291 290 290 291 291 290 289 289 289 286 284 291 292 291 290 289 287 285 282 282 282 283 282 281 280 280 280 277 277 277 277 277 276 276 275 274 274 274 274 274 274 275 276 277 278 278 281 281 279 279 280 279 280 280 281 281 281 282 282 282 281 281 281 281 280 281 282 282
Wind_Speed
8 11 13 15 13 15 16 16 13 6 9 9 8 7 8 8 5 2 0 3 1 4 11 11 11 13 14 12 10 11 4 7 10 11 9 9 8 8 8 9 11 11 14 7 9 11 12 12 12 12 12 13 16 17 17 17 18 18 17 15 17 15 15 14 13 13 10 11 11 12 13 13 12 10 9 9 10 10 10 11 10 8 8 8 9 9
6 11 13 9 14 15 14 12 7 5 3 9 8 8 8 6 9 2 3 3 0 3 5 2 6 13 15 13 13 10 9 13 13 13 13 12 11 9 9 10 11 12 5 3 7 10 11 11 12 12 13 15 17 17 18 19 19 19 19 18 16 14 14 15 14 12 12 13 12 12 12 10 9 9 11 10 9 9 8 11 11 10 8 9 8 8
8 14 11 12 13 12 12 12 10 11 10 8 8 7 6 7 4 3 4 1 2 2 10 9 10 15 15 14 13 12 13 12 12 13 14 13 12 9 9 10 11 8 10 8 12 10 11 12 13 13 14 15 17 16 18 19 19 18 18 18 16 14 15 14 14 13 13 13 13 14 12 12 11 11 9 9 9 9 10 11 12 11 8 10 9 9
9 10 15 14 12 14 11 11 11 8 6 5 4 6 9 2 4 5 4 2 2 3 6 8 12 13 18 16 17 16 13 13 12 13 14 12 13 13 12 11 9 10 10 11 12 12 12 12 12 13 13 14 14 16 17 18 19 17 17 18 19 18 16 15 15 13 15 15 15 15 14 14 14 11 10 11 11 11 12 12 11 12 12 11 10 9
1 7 12 13 13 14 14 11 11 9 8 2 7 7 6 3 4 6 1 2 3 1 2 9 13 13 13 16 12 12 13 13 11 9 10 10 10 11 10 7 7 12 10 11 12 10 10 12 14 16 15 13 14 16 16 17 17 15 20 20 20 18 18 17 15 16 15 14 13 12 11 11 9 9 11 11 12 11 11 10 12 13 12 12 11 10
4 7 10 11 12 12 11 11 12 9 8 5 6 8 7 4 7 2 2 4 5 5 3 4 7 6 2 6 9 6 3 7 6 9 10 8 9 10 12 13 10 9 9 11 12 11 10 12 12 12 12 13 13 15 16 16 17 17 16 18 18 15 15 16 18 19 16 15 14 12 13 15 16 16 14 16 14 11 13 13 9 9 11 11 11 11
5 5 14 14 14 13 12 10 13 11 7 6 7 11 8 6 3 2 3 2 5 5 3 3 5 8 4 12 11 9 7 10 7 9 10 8 8 9 10 10 11 11 11 10 12 12 9 11 12 12 13 15 16 18 15 14 16 19 17 16 17 16 14 15 16 18 15 17 15 17 16 15 16 17 13 11 10 11 10 8 11 10 10 12 12 11
6 9 10 11 12 12 10 10 11 14 8 8 5 10 6 7 6 4 3 4 7 2 8 5 6 11 11 14 8 10 13 15 14 13 11 10 10 11 10 11 11 11 12 10 12 14 13 12 12 14 16 15 17 16 13 14 15 18 18 16 17 15 14 13 14 16 19 17 18 17 18 16 17 17 16 12 13 13 10 10 11 10 9 11 12 11
12 9 11 13 12 10 13 10 11 13 8 4 6 12 11 10 7 5 4 1 2 5 9 4 4 6 10 3 3 5 11 15 16 14 12 12 13 11 11 11 11 12 12 12 10 13 13 14 13 13 12 12 12 10 13 15 13 13 13 14 13 14 13 13 16 18 20 19 16 18 16 16 15 16 15 12 11 11 11 12 10 10 10 10 12 12
3 9 17 16 12 12 6 9 14 13 7 1 6 7 7 7 6 3 2 2 1 3 11 5 7 7 18 4 11 6 8 15 9 8 11 11 13 11 9 9 9 9 8 9 12 10 9 8 9 9 9 8 12 12 11 10 9 10 10 12 15 16 14 14 17 19 19 21 17 18 19 20 17 14 11 12 14 13 10 13 11 10 10 10 10 11
2 4 3 5 9 5 8 5 7 13 4 11 9 10 7 5 2 3 2 2 2 9 11 8 10 8 12 3 9 7 5 5 6 7 9 10 10 10 8 7 5 4 4 5 7 9 10 9 9 8 12 14 11 7 9 11 11 12 12 14 16 18 14 15 17 19 20 19 19 19 20 21 21 17 15 15 15 14 11 12 12 11 11 10 10 9
4 5 8 0 2 4 10 8 6 4 11 13 4 6 8 4 2 2 1 0 4 8 3 1 7 12 10 2 3 3 5 4 4 7 8 8 10 9 4 3 3 4 5 6 6 8 8 7 7 7 10 11 9 5 9 10 11 11 12 13 17 17 17 16 16 17 19 20 21 21 20 20 20 19 16 17 18 15 14 13 12 12 10 10 8 8
5 6 1 2 5 9 9 11 3 4 6 4 8 10 8 2 2 3 2 5 10 8 1 1 1 5 20 12 9 12 13 10 8 7 8 9 11 8 4 1 2 4 5 6 6 6 5 6 6 7 9 8 9 9 10 11 10 11 12 15 16 17 17 17 17 18 21 19 20 21 21 20 17 19 19 19 18 16 16 13 14 12 12 9 10 10
2 1 2 3 2 5 12 12 7 5 5 8 10 11 9 7 6 9 9 2 3 2 4 4 2 9 12 9 10 15 13 6 5 6 8 10 10 8 8 6 6 6 8 7 6 6 6 5 5 5 5 6 6 8 9 10 10 10 11 14 16 19 16 16 16 18 18 20 21 20 19 18 16 17 18 18 17 17 16 15 15 14 12 11 13 11
10 5 12 14 8 8 12 9 12 6 12 7 6 9 4 3 5 10 7 8 6 4 3 4 1 6 2 2 3 3 5 6 7 7 6 6 7 7 7 9 10 9 6 5 5 6 6 6 6 6 6 6 7 8 8 9 10 10 12 13 16 17 16 16 17 16 18 18 21 19 17 17 15 16 17 16 15 15 16 15 15 14 13 13 13 13
12 2 4 6 3 12 11 2 9 15 7 4 1 2 1 6 1 4 0 2 1 2 3 5 8 3 5 7 10 8 9 11 9 6 3 7 3 3 5 6 7 6 6 4 5 5 6 6 5 5 5 6 6 8 8 10 9 10 12 12 15 15 14 14 14 15 16 18 16 17 19 18 17 13 13 13 11 13 13 14 14 14 14 13 13 12
3 5 2 5 3 15 9 9 5 14 9 9 6 8 4 4 4 3 2 3 2 1 10 3 7 10 8 14 16 13 7 10 7 5 4 2 4 3 5 4 5 6 6 5 5 5 6 5 5 5 6 5 5 6 7 8 8 10 10 11 13 13 12 13 14 16 15 16 17 17 18 18 16 18 16 15 16 15 12 13 13 13 13 13 12 9
11 7 2 1 13 2 3 4 13 2 2 11 8 11 5 3 4 1 7 2 2 6 5 3 10 10 2 8 4 2 5 7 5 6 4 2 3 3 3 3 3 5 5 6 6 5 5 5 6 5 5 6 6 7 7 8 8 7 8 10 12 12 13 13 12 13 15 16 16 17 16 16 16 15 15 14 13 11 12 11 10 10 9 11 9 8
10 8 3 5 4 4 3 5 3 3 4 5 5 11 11 7 8 5 1 4 6 5 5 6 8 9 9 10 2 7 9 8 6 1 5 1 2 2 3 3 3 3 4 4 5 4 4 4 4 4 5 5 5 6 7 6 6 6 8 9 10 12 12 12 10 11 13 15 13 10 12 13 12 10 9 9 8 7 12 12 10 11 10 9 8 8
3 7 3 2 5 5 5 9 15 11 4 2 2 10 1 2 7 9 8 1 2 7 2 4 5 8 8 8 9 13 7 5 6 3 4 4 2 2 2 3 4 4 5 4 4 5 5 5 5 5 5 5 4 3 3 5 5 7 7 7 9 9 8 8 10 10 12 13 14 9 9 10 8 9 10 9 13 12 11 11 10 10 10 10 8 10
4 1 7 5 1 9 8 11 14 15 14 9 9 11 5 4 4 2 0 5 4 3 4 5 5 5 4 7 9 11 7 6 4 5 0 4 3 4 4 4 4 5 5 5 5 5 5 6 5 5 3 3 4 4 4 4 5 5 5 6 7 8 9 9 9 10 13 12 14 13 14 12 11 11 9 9 10 10 10 10 10 11 11 9 12 10
3 5 11 11 8 12 5 4 2 12 13 11 13 14 17 14 9 11 8 4 1 3 3 2 8 7 3 3 7 7 7 5 2 1 2 2 4 5 4 4 4 4 5 6 5 5 6 6 5 4 2 2 4 5 5 5 5 5 6 5 5 6 7 8 9 9 11 11 11 13 13 12 10 10 9 10 10 11 10 10 9 10 9 11 11 10
2 5 12 11 8 9 4 3 5 4 2 4 4 9 11 10 6 7 9 5 2 2 3 1 3 8 5 8 7 7 1 2 2 4 4 6 7 6 5 3 4 5 6 6 6 5 5 6 5 5 5 5 5 6 6 7 7 5 5 4 5 6 7 7 7 8 9 10 11 11 10 8 9 9 10 10 9 10 10 9 10 10 11 10 10 10
4 6 10 7 8 4 4 1 1 2 2 6 6 2 4 13 10 3 1 5 8 4 2 4 3 8 3 2 3 3 0 2 3 5 6 2 3 4 4 5 5 4 4 5 5 5 5 5 4 5 5 5 5 6 6 7 6 6 6 5 5 6 6 6 6 7 9 10 10 9 7 8 7 9 10 11 10 11 11 10 10 10 11 11 10 11
7 6 11 12 8 3 1 3 5 3 4 9 9 6 6 4 4 0 2 0 5 12 13 10 12 5 2 1 2 3 3 5 6 5 4 5 3 1 4 4 4 4 4 4 5 5 5 4 5 6 5 5 5 5 5 6 6 6 7 6 6 7 6 6 6 7 8 9 8 7 7 8 8 9 10 11 9 11 11 10 9 10 11 10 10 10
2 8 12 17 18 16 12 13 18 20 17 6 2 9 11 16 18 8 7 7 7 9 15 9 11 5 4 2 3 5 3 4 4 2 2 6 5 5 4 5 5 3 4 5 6 5 6 6 6 7 6 5 5 5 4 5 6 6 6 7 7 6 6 6 6 7 8 8 8 7 8 8 8 9 10 10 9 10 9 9 9 9 8 9 11 9
3 3 5 7 11 16 11 5 14 21 13 11 20 20 18 14 13 9 2 3 14 4 11 19 11 4 5 9 7 6 4 3 4 3 3 3 5 5 5 5 4 5 5 6 6 5 6 8 8 8 6 5 5 4 4 5 6 7 7 7 6 6 5 6 6 6 8 8 9 7 8 8 8 7 8 8 7 6 7 8 8 9 9 8 9 11
4 3 10 11 8 6 6 3 13 23 21 23 19 19 17 16 18 18 14 17 11 8 13 17 9 7 12 9 7 6 4 5 4 5 3 5 5 6 7 5 6 6 6 5 6 7 7 8 9 7 5 4 4 4 4 5 7 7 7 8 5 4 5 5 6 7 7 7 7 8 8 7 6 6 6 6 5 6 7 7 7 8 7 8 10 10
7 10 11 8 1 3 3 14 19 17 18 18 21 22 21 20 18 20 26 18 14 14 15 6 16 20 16 12 7 7 3 4 10 6 3 5 6 8 7 6 6 6 7 7 8 7 7 8 9 8 5 3 3 4 5 5 6 7 7 6 5 5 6 5 6 7 6 6 7 7 6 6 5 5 6 6 6 7 7 7 7 7 8 8 9 9
6 5 8 8 5 5 2 9 13 16 7 8 17 19 24 23 26 28 27 22 21 18 11 8 10 15 11 12 12 10 10 10 7 7 5 6 9 9 7 6 7 8 8 10 10 8 7 8 8 7 6 4 4 5 5 5 6 6 7 7 6 6 5 4 6 5 5 6 6 4 3 4 3 4 5 6 8 8 8 8 7 8 8 8 8 8
7 5 10 7 4 2 2 1 9 13 10 12 11 15 20 25 28 27 19 14 15 15 15 7 8 15 10 4 7 10 7 4 4 9 10 9 8 9 10 11 10 10 11 10 8 7 7 7 8 7 6 5 4 5 5 6 5 5 6 7 7 6 5 5 6 5 5 6 3 2 2 2 3 2 4 5 5 5 6 7 7 7 8 8 8 9
2 2 2 7 8 0 0 7 5 4 3 8 11 17 24 26 22 16 10 15 14 25 14 4 12 18 8 15 11 4 4 9 10 11 10 10 12 11 11 11 10 11 11 10 8 6 7 7 7 7 8 7 5 5 5 5 5 5 7 8 8 7 6 6 6 6 6 5 4 4 4 4 3 3 2 2 4 5 5 6 7 8 8 8 9 7
5 6 8 9 12 4 3 4 9 7 4 3 12 28 30 13 16 13 15 16 24 14 8 16 22 13 12 12 8 8 12 14 13 11 14 15 14 12 11 10 10 10 9 8 9 7 6 6 6 8 9 7 6 6 7 5 5 7 6 7 9 6 7 7 7 6 6 5 6 6 5 5 5 5 4 4 5 5 6 7 7 8 8 9 8 8
9 12 7 8 7 5 6 5 7 7 7 16 22 10 16 24 23 13 21 26 22 15 20 17 11 5 8 10 16 15 14 16 15 15 13 12 11 7 5 7 9 9 9 8 6 6 7 5 5 6 7 8 8 7 7 4 6 5 4 6 6 8 8 8 7 7 6 6 6 6 5 5 6 6 6 5 5 5 6 6 8 6 6 5 5 8
17 13 8 4 7 5 2 6 8 8 13 18 7 6 19 20 20 30 27 21 21 20 16 14 19 21 12 13 14 13 12 13 11 11 10 6 4 5 8 9 8 9 8 8 7 5 7 7 6 8 8 7 6 5 3 4 5 4 4 6 8 8 8 8 8 8 8 8 7 7 6 6 6 7 6 7 7 7 7 7 6 5 4 4 6 8
11 10 5 3 5 5 2 7 7 20 11 5 2 1 14 21 26 22 15 5 7 16 22 26 29 23 11 10 7 5 8 6 4 7 8 8 6 8 8 9 9 7 8 7 7 8 7 4 5 8 10 7 6 5 4 5 2 4 4 5 7 7 7 8 8 8 8 7 7 7 6 7 7 6 6 6 6 6 7 6 6 7 5 5 4 3
13 9 8 4 2 10 10 14 18 5 12 14 8 5 10 12 11 14 11 19 27 25 24 22 25 20 11 10 7 4 6 4 8 9 8 11 10 11 10 10 7 7 7 9 6 8 4 3 5 6 7 7 6 7 5 3 2 3 3 5 7 7 7 7 9 8 8 8 8 8 8 8 8 8 8 7 7 7 6 7 6 4 4 6 6 7
4 12 10 13 3 1 9 6 3 7 12 16 2 7 10 8 15 16 12 16 15 19 18 21 21 17 8 9 8 11 3 3 10 11 13 10 10 8 9 9 9 8 7 7 5 5 4 3 3 4 4 7 7 5 3 2 3 4 4 6 6 7 8 8 9 7 7 8 8 8 7 7 8 7 7 7 8 8 6 5 4 6 6 7 7 6
3 2 1 13 6 3 5 10 12 15 17 5 9 15 14 15 16 11 3 17 10 16 15 20 18 12 10 12 16 9 7 8 11 10 12 6 5 7 7 7 6 3 2 2 3 3 3 4 5 7 6 5 5 2 1 3 4 4 5 5 6 6 8 8 6 5 6 6 6 6 6 7 6 5 6 7 7 6 6 6 6 5 4 3 3 4
5 6 4 5 4 11 16 11 13 10 4 5 13 13 11 10 16 10 4 15 4 19 15 18 19 14 17 22 14 12 13 12 9 10 9 4 4 5 6 4 2 2 1 1 1 1 3 4 5 5 5 5 5 3 2 3 4 3 4 4 5 7 8 7 6 5 5 4 5 5 4 4 5 5 6 7 6 5 5 4 4 5 5 4 4 4
9 4 8 14 11 2 7 10 3 5 2 2 8 10 11 16 16 11 19 1 10 9 16 19 25 21 11 12 12 11 13 13 10 4 5 4 3 2 1 0 1 1 2 2 2 0 1 2 3 4 5 5 5 4 1 3 3 4 4 3 5 7 7 6 4 4 4 4 4 3 4 4 5 6 5 5 6 5 5 4 5 5 5 5 3 4
8 8 7 6 6 11 12 8 12 7 3 11 1 10 16 11 6 16 4 1 9 8 6 10 9 11 18 19 12 12 13 14 6 7 6 4 4 1 1 1 1 1 2 2 1 2 1 2 2 3 3 3 5 4 1 1 2 3 3 3 5 6 4 5 5 5 5 5 3 3 3 3 3 4 5 5 5 6 5 3 4 5 6 4 4 6
22 17 15 15 8 4 2 11 1 14 9 16 14 4 7 12 12 5 4 0 3 7 12 10 13 12 14 13 16 15 8 7 9 8 6 4 3 3 3 3 2 1 2 0 3 1 1 2 1 2 4 4 5 4 2 0 2 1 1 3 3 0 2 4 4 5 5 3 3 3 3 3 4 4 4 5 5 6 6 5 5 4 4 5 6 6
11 7 4 8 13 16 17 16 14 3 11 18 20 14 15 7 2 9 9 7 4 3 7 10 7 14 14 14 13 10 7 6 4 6 4 1 2 1 2 2 2 2 1 1 1 1 1 1 1 2 3 4 5 4 3 2 2 2 2 3 3 1 0 1 1 2 3 3 3 2 3 2 2 2 2 3 4 4 6 6 6 6 5 6 7 7
15 21 14 12 13 12 11 9 3 4 8 14 16 2 12 12 6 6 3 9 9 5 3 6 12 9 12 11 11 11 7 7 4 4 6 5 3 1 2 2 1 1 1 1 1 2 1 1 2 2 3 4 6 5 4 3 2 3 3 3 1 0 0 1 2 2 2 2 3 4 3 3 3 3 2 3 4 5 6 6 7 6 5 6 6 6
8 11 6 6 5 7 6 0 1 4 11 11 0 3 13 15 4 4 5 6 6 8 12 10 12 14 10 7 9 5 8 9 8 4 4 3 2 2 1 1 2 2 2 0 1 3 2 1 2 3 4 5 7 6 5 4 3 3 3 2 1 1 1 2 2 1 2 2 2 2 4 5 4 4 4 5 4 4 4 5 6 6 6 6 6 6
2 6 4 6 3 10 15 13 7 6 8 14 11 4 7 2 5 4 5 4 4 8 7 2 11 15 15 12 11 11 9 6 8 5 4 4 3 3 3 3 3 3 2 2 3 2 2 2 3 4 5 6 6 6 5 5 5 4 4 4 3 3 2 1 1 2 2 1 1 1 2 4 3 4 3 4 4 5 5 6 6 6 6 7 7 7
6 5 5 2 11 16 14 9 10 7 10 12 9 6 9 10 7 4 1 1 4 5 3 5 8 9 8 9 5 8 8 5 8 7 4 3 4 3 2 1 1 2 3 2 2 2 2 4 4 4 5 5 5 5 5 5 6 6 6 5 5 4 2 2 2 1 2 2 1 0 1 1 2 3 3 4 5 5 5 6 7 8 9 10 10 10
5 11 10 9 11 5 6 4 2 3 1 7 7 10 9 13 11 6 4 6 8 11 8 5 1 8 10 9 6 8 9 5 4 7 7 5 4 3 2 2 3 3 3 3 3 4 3 3 5 5 6 5 4 4 4 5 5 5 6 5 5 5 3 3 3 3 3 1 1 1 0 0 1 2 1 2 2 2 3 5 6 6 5 3 4 6
11 14 10 9 7 8 19 14 12 9 6 9 14 20 18 8 8 9 6 8 7 10 8 12 8 5 4 5 6 8 9 7 4 5 8 5 4 3 3 3 4 4 4 3 3 4 6 4 5 5 6 4 3 3 3 4 5 5 6 5 5 5 4 3 2 2 2 1 0 1 1 1 1 1 1 1 2 2 1 6 6 4 2 3 0 4
17 18 14 15 17 20 9 9 15 14 12 16 20 17 10 8 11 12 10 9 6 5 9 14 12 6 6 4 3 4 7 7 5 6 8 6 5 4 3 4 5 4 4 2 4 7 7 5 5 6 6 4 3 3 4 5 5 6 6 6 5 5 4 3 1 1 1 1 1 2 1 1 1 1 1 1 1 1 2 1 1 5 6 6 4 1
Wind_Direction
156 171 188 197 194 188 188 198 203 211 199 202 206 214 228 227 234 91 142 99 318 293 256 254 254 258 265 259 256 254 213 237 249 256 245 240 237 237 233 229 229 227 234 219 211 212 210 211 210 209 213 217 219 220 218 217 217 217 216 214 218 213 213 215 215 213 206 206 210 214 216 217 215 210 208 212 215 222 226 226 225 214 207 207 201 201
194 191 204 192 195 181 185 191 189 115 192 194 196 216 225 216 250 184 196 95 164 241 271 190 272 269 266 263 259 256 245 253 251 252 250 246 240 239 242 244 235 235 241 207 227 221 212 210 208 208 216 217 217 218 217 218 217 217 216 216 216 214 212 213 214 212 210 210 210 209 216 215 213 210 206 211 210 214 218 224 224 224 211 205 204 201
197 209 183 182 181 171 181 189 188 193 184 188 213 199 234 226 254 264 235 169 140 270 270 279 279 276 269 264 261 248 243 249 249 247 254 256 247 234 232 240 248 252 248 238 239 228 215 210 206 203 211 214 218 219 218 220 217 216 215 216 214 214 213 213 212 212 212 212 214 213 216 211 221 220 213 207 206 203 213 214 218 221 214 207 205 199
188 210 187 173 165 174 178 181 189 178 171 177 177 183 216 135 183 220 152 183 177 242 310 315 297 282 278 261 251 250 237 241 239 240 243 241 249 247 238 227 229 238 243 237 234 225 213 205 206 209 211 210 210 218 222 220 217 216 217 217 216 217 214 212 211 211 214 213 216 217 222 221 221 217 213 211 209 210 212 219 213 220 221 216 214 198
145 143 162 151 171 179 173 176 179 180 191 196 213 215 214 149 229 271 24 312 201 213 248 291 284 270 254 261 251 241 222 228 232 242 245 242 241 249 256 252 229 239 229 238 243 231 210 204 209 208 209 203 205 212 214 213 212 213 214 214 213 214 215 214 208 206 211 214 216 217 221 227 225 222 221 215 213 208 209 212 213 218 212 214 216 213
116 139 133 153 172 177 162 173 189 172 204 180 237 225 226 194 236 172 351 321 277 254 94 343 304 268 177 257 275 284 308 255 240 244 252 242 230 233 247 247 241 231 239 243 245 239 217 211 215 214 210 205 209 213 214 209 210 211 213 212 211 212 212 210 210 210 207 210 213 212 214 216 219 223 211 210 208 205 211 211 206 205 202 207 212 215
168 149 167 170 170 177 179 190 185 175 197 185 210 196 215 212 202 160 236 317 268 264 98 327 261 277 325 288 275 271 259 263 243 227 243 243 236 233 234 239 240 235 237 232 249 255 239 220 214 212 209 208 212 218 212 207 210 210 213 210 207 207 207 207 207 207 207 211 211 212 210 211 213 218 220 210 206 207 211 208 207 204 198 203 210 215
142 158 172 163 164 171 185 197 182 187 188 209 104 166 171 167 174 196 211 239 272 350 272 196 259 284 287 271 250 260 267 264 254 241 227 233 231 224 223 227 233 233 231 230 231 239 239 236 214 216 212 208 213 215 205 209 211 210 211 208 206 208 209 206 203 205 209 211 213 215 217 218 221 220 223 205 210 211 209 207 208 201 201 201 212 214
138 142 173 161 171 179 200 195 148 189 202 194 152 151 177 185 196 168 226 231 341 346 279 177 132 286 256 231 186 218 257 258 247 246 236 230 235 231 222 222 222 226 225 224 230 237 232 230 229 226 221 219 221 212 207 211 213 215 218 216 214 213 210 210 206 211 210 215 214 216 218 220 223 224 223 219 214 213 210 212 203 199 199 202 208 212
286 177 175 168 170 199 141 123 153 180 168 71 119 77 82 76 65 79 87 56 335 296 262 231 167 259 277 208 267 173 233 261 265 258 258 248 243 235 232 230 233 234 230 235 244 251 250 244 246 243 249 240 223 220 216 216 213 213 213 215 216 218 214 211 210 214 212 215 217 218 219 221 223 219 219 216 219 216 206 209 201 199 202 203 205 208
43 324 330 175 200 149 114 86 146 175 89 123 133 115 94 55 66 34 65 81 353 249 258 212 177 228 292 187 213 210 238 275 268 245 253 258 256 257 242 241 248 263 264 255 257 259 263 255 253 240 234 238 236 219 220 223 220 217 215 216 217 221 219 216 215 215 216 214 216 220 221 222 224 219 216 214 219 218 204 205 200 200 203 201 204 201
90 127 166 171 9 94 115 104 27 51 138 142 141 131 112 91 65 92 49 46 225 255 68 63 188 192 236 209 222 1 345 286 266 273 269 265 269 266 259 248 271 275 260 237 238 248 243 247 237 236 246 245 246 232 221 222 219 217 216 215 219 221 217 214 213 213 217 218 218 221 222 221 221 219 216 213 215 208 204 198 200 201 198 200 196 198
131 164 75 79 288 148 143 121 96 109 168 153 134 138 144 146 143 202 178 212 211 245 65 331 171 219 237 246 315 301 274 252 230 246 268 276 275 274 281 284 268 254 259 258 244 239 238 235 233 224 236 235 234 230 226 224 220 219 221 218 219 222 215 215 211 211 215 213 217 219 220 221 219 218 218 217 215 211 207 200 201 195 197 190 196 198
92 106 239 159 116 251 165 159 148 154 201 152 162 162 156 172 184 215 205 246 285 121 234 92 103 261 285 296 246 253 280 314 288 272 263 263 271 292 301 308 288 266 258 266 278 280 276 265 260 261 269 262 251 238 235 232 223 219 218 217 218 225 216 213 210 209 213 218 219 215 215 217 215 216 216 217 216 214 213 206 203 197 193 194 198 198
154 198 228 173 194 177 191 185 166 151 166 181 163 182 209 166 179 205 195 201 216 244 143 245 118 244 205 121 30 316 283 283 272 260 268 271 279 287 296 291 278 269 271 259 262 261 264 265 257 256 252 252 249 247 240 234 228 225 226 221 221 224 219 213 211 210 216 221 223 223 219 219 216 216 217 217 216 215 212 209 204 203 201 201 203 203
190 109 16 127 37 154 171 65 135 123 143 183 206 19 282 213 36 224 245 240 189 191 208 184 223 293 245 351 302 247 244 256 247 269 285 283 278 254 267 265 278 285 287 282 283 275 264 260 254 250 246 249 252 250 246 239 232 227 230 229 229 227 223 217 212 213 219 226 227 226 225 222 220 217 216 218 214 217 212 206 204 203 202 204 204 205
115 175 164 108 139 167 165 149 141 150 173 181 161 215 195 10 102 104 97 49 31 327 253 172 267 260 275 271 255 273 313 293 264 185 212 274 291 279 268 270 271 287 293 292 286 287 290 285 269 251 250 249 250 253 245 244 237 233 233 234 235 235 232 226 219 219 221 228 228 227 227 225 221 220 217 217 216 214 211 207 204 205 202 201 202 194
164 124 99 110 166 21 5 177 168 105 310 138 212 193 106 51 14 213 227 106 225 245 259 136 243 262 244 285 82 225 244 285 273 226 151 199 259 284 290 281 274 283 292 291 282 268 269 276 280 277 260 247 244 237 246 250 246 244 243 239 236 234 231 229 226 221 224 227 227 229 228 226 225 224 223 222 219 207 210 204 197 198 194 197 193 180
117 98 140 342 77 64 92 130 155 182 346 208 189 130 167 198 210 190 203 222 199 230 269 220 239 259 234 238 177 249 295 325 294 202 134 154 261 278 295 301 287 275 288 311 321 314 302 280 279 271 273 280 273 275 273 278 270 256 245 243 244 241 233 227 224 221 226 228 227 223 225 225 224 217 215 216 213 203 211 201 192 195 193 186 181 174
156 117 131 0 171 154 152 184 188 189 185 48 87 186 36 344 219 174 202 314 188 236 199 261 123 265 184 224 206 247 253 284 304 271 151 168 190 259 298 304 307 313 309 305 302 305 297 291 279 276 279 279 283 287 290 286 281 272 265 256 247 249 249 239 229 218 223 224 224 215 213 216 216 212 210 208 212 209 207 200 193 190 188 187 155 177
114 162 136 139 138 150 182 204 200 173 166 168 177 190 185 207 346 324 52 208 211 224 217 288 288 244 185 197 199 199 205 266 272 280 198 156 215 238 255 269 283 294 296 294 300 302 300 297 295 292 293 294 294 281 273 267 268 267 257 253 253 247 243 238 236 232 231 228 226 219 215 212 208 206 201 199 204 205 198 195 194 194 191 175 177 173
135 189 134 146 160 198 206 128 213 170 180 176 181 192 190 175 172 178 213 111 266 210 232 209 263 273 173 121 201 215 240 267 26 310 298 188 223 256 257 238 242 282 284 286 295 304 302 298 292 283 294 287 283 275 259 249 250 247 239 237 235 240 245 237 232 227 232 231 230 224 218 212 203 200 196 195 195 201 198 196 194 187 174 182 181 180
110 83 117 160 183 168 97 16 16 352 296 207 210 215 201 201 197 196 198 172 114 245 47 6 328 286 127 169 190 224 256 80 242 209 229 216 215 232 243 248 246 241 267 283 291 293 287 285 286 293 292 282 268 264 259 253 242 243 251 252 248 243 245 238 243 236 233 230 228 225 218 205 200 194 194 194 194 197 194 190 188 182 180 182 181 186
136 121 109 85 73 47 55 66 26 4 249 248 242 279 205 199 193 218 299 143 185 149 207 220 255 249 142 116 199 270 335 220 262 232 236 237 207 217 230 242 248 266 261 275 276 261 261 282 290 291 278 258 243 240 241 247 250 253 254 254 257 255 260 254 244 239 236 234 232 223 212 207 197 196 196 198 196 197 196 190 188 181 184 183 177 181
144 206 126 127 124 152 107 152 200 175 204 227 208 181 224 191 187 336 44 166 209 205 195 181 222 252 133 85 162 245 224 220 220 228 225 253 263 241 256 255 248 248 268 268 274 285 291 286 287 279 270 259 253 248 252 250 248 247 247 243 241 247 248 248 244 239 236 233 228 220 214 209 198 198 200 200 198 200 194 190 184 182 184 175 178 179
19 172 159 152 161 170 178 196 201 196 193 160 135 172 210 194 193 163 197 199 217 217 186 206 231 98 154 269 217 192 215 236 222 208 227 233 258 262 248 249 261 261 262 283 284 296 308 310 299 279 264 261 254 250 256 261 256 255 250 244 239 242 243 242 242 240 239 234 228 220 216 210 205 206 204 203 201 198 190 184 180 179 179 174 171 162
115 128 253 196 177 179 177 106 69 86 105 179 202 200 201 206 201 210 318 199 220 144 179 222 211 130 187 196 213 212 188 209 260 206 208 234 228 238 251 259 257 260 276 283 288 286 292 283 276 272 274 265 277 266 260 263 261 259 258 252 238 236 240 243 240 234 230 229 226 219 218 211 209 208 206 202 197 184 180 180 177 173 172 171 164 162
130 158 223 205 205 354 62 92 137 143 173 196 178 192 193 190 198 200 199 219 149 113 228 229 175 236 214 208 220 234 209 208 236 281 203 203 229 230 242 265 280 277 271 268 272 273 275 284 286 281 280 291 281 276 263 260 258 254 252 252 243 235 236 232 235 236 228 221 223 218 217 213 204 201 198 189 179 179 181 176 173 175 164 159 163 169
157 189 199 177 105 23 49 144 162 162 181 179 181 191 186 193 193 203 219 217 149 196 227 146 168 223 222 188 206 220 206 270 270 273 170 256 254 239 232 232 243 265 282 282 275 271 278 289 301 307 311 311 295 271 260 253 253 249 247 249 247 233 229 226 230 238 234 230 230 225 217 207 199 192 181 174 172 172 174 174 170 163 162 168 169 170
161 221 166 170 123 54 8 157 171 172 157 154 189 192 194 190 201 208 216 202 195 216 223 81 194 228 228 192 220 243 252 266 295 350 323 290 284 295 288 275 281 283 279 280 281 283 286 292 300 303 309 296 272 267 250 250 243 240 245 243 236 228 229 211 227 237 245 241 241 243 233 214 199 189 178 174 176 178 171 167 165 161 165 169 166 163
192 188 150 145 108 20 16 100 169 173 143 186 202 205 204 206 209 212 213 197 214 254 260 259 267 258 222 155 217 236 276 15 293 270 261 254 250 260 277 287 287 283 280 279 277 283 294 297 295 298 293 289 278 264 257 245 243 234 240 238 230 222 203 194 220 224 231 238 244 239 231 216 212 185 188 187 169 160 159 156 155 159 162 161 162 163
139 159 165 147 164 247 156 146 135 112 161 187 204 213 217 213 213 214 216 210 195 224 212 234 268 256 138 172 208 197 217 228 236 239 249 249 252 258 267 274 274 274 279 285 288 288 292 292 303 308 302 300 291 268 251 246 232 220 228 226 222 211 180 192 208 211 218 216 186 190 193 198 181 185 186 158 164 159 158 153 157 163 163 160 159 162
157 139 159 167 179 175 202 134 135 116 90 284 249 222 210 185 209 203 220 213 214 210 131 214 234 231 139 169 168 201 224 237 239 245 254 257 255 252 250 253 266 270 265 275 287 290 288 293 290 286 287 283 274 268 253 241 235 227 217 214 218 183 165 191 199 201 205 198 191 193 190 180 180 178 166 174 164 162 158 164 166 167 166 171 170 149
137 151 151 163 174 149 145 155 118 131 186 220 231 209 149 196 194 181 215 214 214 196 214 216 245 81 141 162 186 199 212 224 229 235 231 244 255 245 226 239 247 263 278 270 265 282 291 280 270 269 270 279 281 268 277 249 239 243 216 208 193 188 197 191 197 199 202 191 198 193 185 179 178 177 174 163 161 162 167 170 175 173 169 152 140 156
161 154 166 161 169 134 171 132 158 207 228 234 35 184 181 190 178 204 218 207 208 211 237 272 258 245 191 188 189 196 210 227 230 250 256 254 264 264 250 248 252 251 260 283 290 260 249 267 284 287 287 282 278 281 275 257 235 240 206 205 203 200 192 195 193 201 197 193 193 186 183 179 178 176 169 167 167 169 173 176 165 157 153 150 156 157
161 156 127 53 106 62 109 175 179 219 230 337 351 302 180 178 195 203 236 293 230 209 214 225 233 235 196 174 184 188 217 257 309 256 253 251 212 235 239 239 240 240 259 254 261 275 273 287 294 295 294 308 306 284 252 264 221 219 223 210 212 202 206 200 204 204 195 197 191 188 183 177 178 173 169 167 167 173 175 174 170 164 154 149 154 155
173 143 157 110 287 154 189 183 217 346 351 264 218 226 164 172 147 174 205 227 216 213 208 222 232 230 195 140 170 215 250 301 280 271 212 221 212 215 227 247 239 236 232 252 240 269 308 343 286 284 294 295 292 291 279 262 211 212 205 217 218 208 211 210 215 209 198 197 191 189 184 183 178 175 172 174 175 182 180 171 166 164 161 160 168 167
209 174 166 155 227 169 151 197 236 267 255 244 184 123 160 155 169 185 206 254 221 211 207 217 229 224 192 131 178 205 129 305 269 267 261 235 210 222 218 233 247 247 247 265 308 285 297 302 292 277 279 291 292 285 291 242 200 197 202 217 215 214 220 219 223 210 198 202 193 188 186 186 183 179 177 176 186 185 181 173 169 170 171 173 171 174
28 35 233 186 149 126 171 183 209 212 233 101 153 159 173 164 167 148 141 260 231 182 194 211 228 216 180 175 206 144 165 225 236 241 256 246 168 206 211 216 230 243 257 253 272 296 326 326 317 302 297 278 284 315 269 206 186 197 212 217 216 218 229 233 242 237 220 212 196 188 183 183 184 185 181 185 187 180 176 176 172 166 168 178 169 165
154 194 168 193 167 194 190 197 218 216 230 179 166 179 126 108 122 118 159 254 123 185 187 189 206 201 202 209 179 166 186 215 224 240 244 241 195 182 187 195 166 150 136 113 263 267 298 303 306 298 303 302 303 318 253 188 191 205 218 214 218 222 231 234 237 245 241 223 194 179 178 178 181 186 183 184 175 170 172 160 156 159 169 165 175 160
181 179 198 203 201 190 216 225 286 272 218 223 175 149 148 145 145 162 213 78 184 197 187 184 201 207 178 136 154 192 209 211 215 166 81 118 107 157 218 2 111 117 168 192 226 221 285 284 276 284 292 302 312 316 240 188 189 211 214 205 224 236 236 236 235 226 220 202 188 189 184 182 183 181 185 180 174 163 159 169 162 155 164 162 155 150
188 177 200 217 219 199 210 229 238 275 225 160 336 153 158 128 193 219 164 243 152 190 170 176 139 134 160 171 177 199 203 205 108 126 158 170 163 83 98 99 115 213 194 201 150 153 235 263 285 299 311 329 325 320 279 206 216 234 215 204 230 240 235 229 224 213 202 191 187 181 177 183 180 179 175 169 160 160 161 154 146 158 164 160 148 131
179 176 185 194 189 48 157 222 49 252 222 132 120 60 264 186 217 119 152 64 263 159 144 165 168 160 163 177 191 198 185 180 186 210 201 141 152 167 180 182 200 211 321 152 161 118 1 310 327 338 328 331 336 333 318 297 257 274 260 249 268 266 197 198 197 198 203 194 174 171 182 183 180 177 165 170 172 164 161 154 153 146 155 143 137 134
156 181 195 207 183 182 188 196 213 211 99 152 137 178 199 198 344 156 144 173 251 178 147 142 168 181 179 173 182 184 167 156 186 206 228 88 144 183 164 165 162 158 177 258 312 19 348 311 345 350 354 354 351 349 355 347 324 327 312 303 355 12 147 154 172 148 158 176 171 159 178 176 176 171 171 167 158 157 154 163 161 159 166 158 156 159
185 200 185 192 178 198 209 217 69 285 126 169 169 190 157 200 203 235 259 164 161 206 194 167 168 164 192 174 176 165 158 212 178 147 148 134 139 78 34 36 30 59 73 18 40 37 5 29 28 22 15 30 17 7 4 7 350 341 322 335 15 332 133 109 101 133 144 131 145 165 153 147 165 167 172 159 164 168 174 166 163 162 163 163 171 171
200 182 63 129 201 261 329 163 28 131 185 191 288 269 174 194 220 214 198 159 201 161 177 173 158 168 156 169 134 176 199 175 177 144 149 150 156 133 57 34 97 103 125 123 87 52 36 68 78 58 37 40 31 14 10 8 9 350 323 341 356 0 35 73 78 77 95 112 141 127 131 138 137 140 142 157 168 174 168 158 171 172 168 177 184 180
232 141 118 179 119 129 242 203 151 201 186 199 204 269 272 269 197 181 216 276 138 144 151 87 162 161 165 155 177 168 181 143 148 154 162 124 103 74 32 9 10 30 35 50 42 19 41 52 52 48 43 46 26 19 8 14 22 11 353 358 6 17 30 57 56 61 51 39 63 85 142 159 169 160 157 166 171 172 171 168 176 173 171 184 184 184
215 185 127 151 151 190 232 140 180 186 203 200 189 191 213 226 201 190 223 188 132 87 81 124 130 124 129 153 159 151 132 164 139 143 134 115 108 112 97 75 33 80 71 68 39 40 62 63 71 61 56 51 27 22 19 21 22 10 9 8 8 3 32 56 42 84 90 87 72 155 185 219 142 161 174 181 181 180 180 185 187 187 188 189 188 183
108 117 202 169 183 219 12 231 148 68 65 221 238 263 224 204 193 140 140 129 140 123 111 90 15 138 159 139 135 111 127 180 174 132 134 115 106 100 92 86 80 82 83 68 36 46 58 62 66 70 70 55 35 33 33 30 23 14 20 14 12 2 11 41 49 54 62 62 82 102 119 241 182 225 209 188 204 214 200 193 196 201 212 220 200 194
129 190 182 127 201 209 217 197 143 157 213 214 219 216 216 214 126 137 128 113 139 133 133 109 80 49 67 106 142 134 138 155 167 142 109 100 97 100 103 102 94 94 79 68 69 74 74 61 77 77 73 57 42 40 37 31 23 18 19 13 18 20 37 29 48 55 56 35 52 62 177 199 193 239 247 215 215 221 293 5 3 345 281 226 329 332
187 186 166 189 195 217 193 124 187 202 209 206 201 202 193 165 142 156 167 144 146 140 138 125 121 105 92 68 9 105 130 143 157 117 103 97 97 93 97 115 118 104 94 87 87 50 54 59 63 79 67 53 39 37 36 38 21 15 9 11 10 31 56 38 18 45 43 19 15 12 334 335 267 217 254 250 244 223 223 218 90 43 24 10 52 62